EW3786 Hemavan SE current weather conditions

sailwx.info

Wind from 030 at 3 knots gusting 13

Air temperature -6.1° C
Dewpoint -8.1° C

Last reported at 2019-Dec-08 23:08 UTC.
Time now 2019-Dec-09 00:13 UTC

Location: N 65°49' E 015°07'.
View on Google Maps.

See reports from other nearby stations

  
Tides and Currents Weather Stations Pressure Air Temp Water Temp Dewpoint Dewpoint Depression Visibility Wind Speed Wind Dir Waves Ship Positions
date/time (UTC)wind fromknots sea level pressurealtimeterstation pressurevisibilityair tempwater tempwave heightnotes
2019-Dec-08 23:08 030 3 gusting 13 -6.1
2019-Dec-08 23:03 062 6 gusting 13 -6.1
2019-Dec-08 22:58 297 2 gusting 11 -6.1
2019-Dec-08 22:53 057 6 gusting 11 -6.1
2019-Dec-08 22:48 008 3 gusting 7 -6.1
2019-Dec-08 22:43 326 2 gusting 5 -6.1
2019-Dec-08 22:38 114 0 gusting 6 -6.1
2019-Dec-08 22:33 339 4 gusting 10 -6.1
2019-Dec-08 22:28 335 4 gusting 9 -6.1
2019-Dec-08 22:23 241 0 gusting 11 -6.1
2019-Dec-08 22:18 099 6 gusting 15 -6.1
2019-Dec-08 22:13 076 6 gusting 15 -6.1
2019-Dec-08 22:08 123 6 gusting 15 -6.1
2019-Dec-08 22:03 172 5 gusting 15 -6.7
2019-Dec-08 21:58 062 7 gusting 13 -6.7
2019-Dec-08 21:53 101 8 gusting 19 -6.7
2019-Dec-08 21:48 170 6 gusting 15 -6.7
2019-Dec-08 21:43 106 4 gusting 17 -6.1
2019-Dec-08 21:38 102 5 gusting 13 -6.1
2019-Dec-08 21:33 047 6 gusting 13 -6.1
2019-Dec-08 21:28 021 3 gusting 10 -6.1
2019-Dec-08 21:23 252 3 gusting 13 -6.1
2019-Dec-08 21:18 227 3 gusting 12 -6.1
2019-Dec-08 21:13 183 3 gusting 6 -6.1
2019-Dec-08 21:08 155 4 gusting 12 -6.1
2019-Dec-08 21:03 143 6 gusting 14 -6.1
2019-Dec-08 20:58 144 7 gusting 14 -6.1
2019-Dec-08 20:53 155 7 gusting 15 -6.1
2019-Dec-08 20:48 144 7 gusting 14 -6.1
2019-Dec-08 20:43 139 6 gusting 15 -6.1
2019-Dec-08 20:38 143 8 gusting 15 -6.1
2019-Dec-08 20:33 107 7 gusting 14 -6.1
2019-Dec-08 20:28 127 1 gusting 7 -6.1
2019-Dec-08 20:23 133 2 gusting 10 -6.1
2019-Dec-08 20:18 249 1 gusting 12 -6.1
2019-Dec-08 20:13 080 3 gusting 12 -6.1
2019-Dec-08 20:08 068 2 gusting 11 -6.1
2019-Dec-08 20:03 129 5 gusting 11 -6.1
2019-Dec-08 19:58 124 5 gusting 11 -6.1
2019-Dec-08 19:53 122 2 gusting 13 -6.1
2019-Dec-08 19:48 100 6 gusting 13 -6.1
2019-Dec-08 19:43 125 4 gusting 13 -6.1
2019-Dec-08 19:38 139 6 gusting 13 -6.1
2019-Dec-08 19:33 113 6 gusting 15 -5.6
2019-Dec-08 19:28 065 7 gusting 14 -6.1
2019-Dec-08 19:23 145 6 gusting 17 -6.1
2019-Dec-08 19:18 145 8 gusting 17 -6.1
2019-Dec-08 19:13 125 7 gusting 16 -6.1
2019-Dec-08 19:08 091 8 gusting 16 -6.1
2019-Dec-08 19:03 138 8 gusting 13 -6.1
2019-Dec-08 18:58 142 7 gusting 15 -6.1
2019-Dec-08 18:53 146 6 gusting 15 -6.1
2019-Dec-08 18:48 135 6 gusting 19 -6.1
2019-Dec-08 18:43 147 9 gusting 19 -6.1
2019-Dec-08 18:38 138 8 gusting 22 -6.1
2019-Dec-08 18:33 101 10 gusting 21 -6.1
2019-Dec-08 18:28 132 11 gusting 19 -6.1
2019-Dec-08 18:23 106 11 gusting 24 -6.1
2019-Dec-08 18:18 089 11 gusting 24 -6.1
2019-Dec-08 18:13 145 12 gusting 19 -6.1
2019-Dec-08 18:08 120 10 gusting 19 -6.1
2019-Dec-08 18:03 095 11 gusting 19 -6.1
2019-Dec-08 17:58 089 10 gusting 19 -6.1
2019-Dec-08 17:53 131 12 gusting 21 -6.1
2019-Dec-08 17:48 138 12 gusting 21 -6.1
2019-Dec-08 17:43 123 11 gusting 19 -6.1
2019-Dec-08 17:38 085 11 gusting 19 -5.6
2019-Dec-08 17:33 110 11 gusting 19 -5.6
2019-Dec-08 17:28 114 12 gusting 19 -5.6
2019-Dec-08 17:23 097 11 gusting 18 -5.6
2019-Dec-08 17:18 132 10 gusting 18 -5.6
2019-Dec-08 17:13 105 11 gusting 19 -5.6
2019-Dec-08 17:08 141 9 gusting 19 -5.6
2019-Dec-08 17:03 084 12 gusting 19 -5.6
2019-Dec-08 16:58 117 11 gusting 19 -5.6
2019-Dec-08 16:53 095 9 gusting 19 -5.6
2019-Dec-08 16:48 142 7 gusting 13 -5.6
2019-Dec-08 16:43 142 6 gusting 13 -5.6
2019-Dec-08 16:38 147 6 gusting 13 -5.6
2019-Dec-08 16:33 105 5 gusting 13 -5.6
2019-Dec-08 16:28 155 6 gusting 13 -5.6
2019-Dec-08 16:23 145 4 gusting 14 -5.6
2019-Dec-08 16:18 122 5 gusting 8 -5.6
2019-Dec-08 16:13 132 4 gusting 11 -5.6
2019-Dec-08 16:08 168 6 gusting 16 -5.6
2019-Dec-08 16:03 138 8 gusting 16 -5.6
2019-Dec-08 15:58 132 6 gusting 18 -5.6
2019-Dec-08 15:53 136 7 gusting 18 -5.6
2019-Dec-08 15:48 139 6 gusting 12 -5.6
2019-Dec-08 15:43 150 6 gusting 14 -5.6
2019-Dec-08 15:38 124 5 gusting 14 -5.6
2019-Dec-08 15:33 106 6 gusting 10 -5.6
2019-Dec-08 15:28 147 4 gusting 13 -5.6
2019-Dec-08 15:23 143 5 gusting 13 -5.6
2019-Dec-08 15:18 136 6 gusting 12 -5.6
2019-Dec-08 15:13 122 6 gusting 14 -5.6
2019-Dec-08 15:08 141 7 gusting 16 -6.1
2019-Dec-08 15:03 159 6 gusting 16 -7.2
2019-Dec-08 14:58 100 0 gusting 5 -8.3
2019-Dec-08 14:53 322 0 gusting 7 -8.3
2019-Dec-08 14:48 237 0 gusting 7 -8.3
2019-Dec-08 14:43 335 0 gusting 6 -8.3
2019-Dec-08 14:38 236 1 gusting 6 -8.3
2019-Dec-08 14:33 104 0 gusting 6 -8.9
2019-Dec-08 14:28 108 -8.9
2019-Dec-08 14:23 123 0 gusting 4 -8.9
2019-Dec-08 14:18 124 2 gusting 4 -8.9
2019-Dec-08 14:13 060 0 gusting 2 -8.9
2019-Dec-08 14:08 124 0 gusting 2 -8.9
2019-Dec-08 14:03 124 -8.9
2019-Dec-08 13:58 124 -9.4
2019-Dec-08 13:53 125 1 gusting 3 -9.4
2019-Dec-08 13:48 102 -9.4
2019-Dec-08 13:43 103 0 gusting 2 -9.4
2019-Dec-08 13:38 067 -9.4
2019-Dec-08 13:33 110 0 gusting 3 -9.4
2019-Dec-08 13:28 111 -9.4
2019-Dec-08 13:23 111 -9.4
2019-Dec-08 13:18 111 0 gusting 5 -9.4
2019-Dec-08 13:13 111 1 gusting 5 -9.4
2019-Dec-08 13:08 106 2 gusting 4 -9.4
2019-Dec-08 13:03 100 -9.4
2019-Dec-08 12:58 095 0 gusting 2 -8.9
2019-Dec-08 12:53 096 -8.9
2019-Dec-08 12:48 096 -8.9
2019-Dec-08 12:43 096 -8.9
2019-Dec-08 12:38 096 -8.9
2019-Dec-08 12:33 096 -8.9
2019-Dec-08 12:28 096 2 gusting 4 -8.9
2019-Dec-08 12:23 096 -8.3
2019-Dec-08 12:18 096 -8.3
2019-Dec-08 12:13 096 -8.3
2019-Dec-08 12:08 096 1 gusting 2 -8.3
2019-Dec-08 12:03 096 -8.9
2019-Dec-08 11:58 096 0 gusting 2 -8.9
2019-Dec-08 11:53 096 0 gusting 1 -8.9
2019-Dec-08 11:48 096 -8.9
2019-Dec-08 11:43 096 0 gusting 1 -8.9
2019-Dec-08 11:38 096 -8.9
2019-Dec-08 11:33 096 -8.3
2019-Dec-08 11:28 096 -8.3
2019-Dec-08 11:23 096 -8.3
2019-Dec-08 11:18 096 -8.3
2019-Dec-08 11:13 096 0 gusting 3 -8.3
2019-Dec-08 11:08 095 -8.3
2019-Dec-08 11:03 095 1 gusting 5 -8.3
2019-Dec-08 10:58 091 0 gusting 4 -8.3
2019-Dec-08 10:53 091 0 gusting 3 -7.8
2019-Dec-08 10:48 091 1 gusting 3 -7.8
2019-Dec-08 10:43 091 1 gusting 3 -7.8
2019-Dec-08 10:38 089 0 gusting 3 -7.8
2019-Dec-08 10:33 101 0 gusting 2 -7.8
2019-Dec-08 10:28 104 1 gusting 3 -7.2
2019-Dec-08 10:23 098 1 gusting 3 -7.2
2019-Dec-08 10:18 116 0 gusting 1 -7.8
2019-Dec-08 10:13 116 -7.8
2019-Dec-08 10:08 116 0 gusting 3 -7.8
2019-Dec-08 10:03 116 0 gusting 3 -7.8
2019-Dec-08 09:58 160 1 gusting 5 -7.8
2019-Dec-08 09:53 160 1 gusting 5 -7.2
2019-Dec-08 09:48 066 0 gusting 6 -7.2
2019-Dec-08 09:43 062 3 gusting 6 -7.2
2019-Dec-08 09:38 060 1 gusting 3 -7.2
2019-Dec-08 09:33 120 0 gusting 3 -7.2
2019-Dec-08 09:28 120 0 gusting 3 -7.2
2019-Dec-08 09:23 121 0 gusting 2 -7.2
2019-Dec-08 09:18 121 0 gusting 4 -7.2
2019-Dec-08 09:13 121 1 gusting 6 -7.2
2019-Dec-08 09:08 078 0 gusting 7 -6.7
2019-Dec-08 09:03 035 5 gusting 7 -6.7
2019-Dec-08 08:58 054 3 gusting 7 -6.7
2019-Dec-08 08:53 103 5 gusting 7 -6.7
2019-Dec-08 08:48 068 3 gusting 6 -6.7
2019-Dec-08 08:43 074 4 gusting 7 -6.7
2019-Dec-08 08:38 089 2 gusting 4 -6.7
2019-Dec-08 08:33 080 2 gusting 4 -6.7
2019-Dec-08 08:28 152 2 gusting 4 -6.1
2019-Dec-08 08:23 060 0 gusting 6 -6.1
2019-Dec-08 08:18 062 3 gusting 6 -6.1
2019-Dec-08 08:13 139 1 gusting 4 -6.1
2019-Dec-08 08:08 139 -6.1
2019-Dec-08 08:03 143 2 gusting 4 -6.1
2019-Dec-08 07:58 064 0 gusting 2 -6.1
2019-Dec-08 07:53 064 1 gusting 3 -6.1
2019-Dec-08 07:48 064 2 gusting 3 -6.1
2019-Dec-08 07:43 021 -6.1
2019-Dec-08 07:38 021 1 gusting 2 -6.1
2019-Dec-08 07:33 013 2 gusting 2 -6.1
2019-Dec-08 07:28 104 -6.1
2019-Dec-08 07:23 104 0 gusting 1 -6.1
2019-Dec-08 07:18 104 -6.1
2019-Dec-08 07:13 104 1 gusting 3 -6.1
2019-Dec-08 07:08 105 1 gusting 3 -6.1
2019-Dec-08 07:03 127 0 gusting 1 -6.1
2019-Dec-08 06:58 127 0 gusting 2 -6.1
2019-Dec-08 06:53 127 -5.6
2019-Dec-08 06:48 127 2 gusting 4 -5.6
2019-Dec-08 06:43 033 0 gusting 7 -5.6
2019-Dec-08 06:38 029 2 gusting 7 -5.6
2019-Dec-08 06:33 058 3 gusting 6 -5.6
2019-Dec-08 06:28 053 2 gusting 5 -5.6
2019-Dec-08 06:23 049 2 gusting 6 -5.0
2019-Dec-08 06:18 049 4 gusting 6 -5.0
2019-Dec-08 06:13 059 1 gusting 4 -5.0
2019-Dec-08 06:08 058 2 gusting 4 -5.0
2019-Dec-08 06:03 060 1 gusting 2 -5.6
2019-Dec-08 05:58 060 1 gusting 4 -5.6
2019-Dec-08 05:53 063 1 gusting 4 -5.6
2019-Dec-08 05:48 054 2 gusting 5 -5.0
2019-Dec-08 05:43 051 2 gusting 5 -5.0
2019-Dec-08 05:38 064 1 gusting 4 -5.0
2019-Dec-08 05:33 057 2 gusting 4 -5.0
2019-Dec-08 05:28 062 2 gusting 4 -5.0
2019-Dec-08 05:23 056 2 gusting 4 -5.0
2019-Dec-08 05:18 075 1 gusting 3 -5.0
2019-Dec-08 05:13 047 1 gusting 3 -5.0
2019-Dec-08 05:08 042 2 gusting 3 -4.4
2019-Dec-08 05:03 050 1 gusting 3 -4.4
2019-Dec-08 04:58 061 2 gusting 3 -4.4
2019-Dec-08 04:53 063 1 gusting 3 -5.0
2019-Dec-08 04:48 064 2 gusting 6 -5.0
2019-Dec-08 04:43 057 3 gusting 6 -5.0
2019-Dec-08 04:38 058 2 gusting 4 -5.0
2019-Dec-08 04:33 064 2 gusting 3 -5.0
2019-Dec-08 04:28 066 1 gusting 3 -5.0
2019-Dec-08 04:23 074 0 gusting 2 -5.0
2019-Dec-08 04:18 071 0 gusting 2 -5.0
2019-Dec-08 04:13 071 1 gusting 2 -4.4
2019-Dec-08 04:08 059 -4.4
2019-Dec-08 04:03 037 -4.4
2019-Dec-08 03:58 037 0 gusting 2 -4.4
2019-Dec-08 03:53 053 -4.4
2019-Dec-08 03:48 052 -4.4
2019-Dec-08 03:43 051 -4.4
2019-Dec-08 03:38 051 1 gusting 3 -4.4
2019-Dec-08 03:33 062 1 gusting 4 -4.4
2019-Dec-08 03:28 063 1 gusting 4 -4.4
2019-Dec-08 03:23 066 1 gusting 6 -4.4
2019-Dec-08 03:18 058 2 gusting 4 -4.4
2019-Dec-08 03:13 058 2 gusting 3 -4.4
2019-Dec-08 03:08 033 0 gusting 4 -4.4
2019-Dec-08 03:03 349 0 gusting 4 -4.4
2019-Dec-08 02:58 048 2 gusting 5 -4.4
2019-Dec-08 02:53 054 1 gusting 4 -4.4
2019-Dec-08 02:48 037 1 gusting 4 -4.4
2019-Dec-08 02:43 049 0 gusting 2 -3.9
2019-Dec-08 02:38 310 -3.9
2019-Dec-08 02:33 312 2 gusting 6 -3.9
2019-Dec-08 02:28 058 1 gusting 6 -3.9
2019-Dec-08 02:23 033 1 gusting 6 -3.9
2019-Dec-08 02:18 345 2 gusting 6 -3.9
2019-Dec-08 02:13 050 -3.3
2019-Dec-08 02:08 050 0 gusting 3 -3.3
2019-Dec-08 02:03 022 0 gusting 1 -3.3
2019-Dec-08 01:58 038 -3.3
2019-Dec-08 01:53 039 0 gusting 3 -3.3
2019-Dec-08 01:48 351 0 gusting 4 -2.8
2019-Dec-08 01:43 326 1 gusting 4 -2.8
2019-Dec-08 01:38 327 1 gusting 5 -2.8
2019-Dec-08 01:33 353 1 gusting 8 -2.8
2019-Dec-08 01:28 341 1 gusting 8 -2.8
2019-Dec-08 01:23 317 1 gusting 5 -2.8
2019-Dec-08 01:18 304 0 gusting 3 -2.8
2019-Dec-08 01:13 308 1 gusting 3 -2.8
2019-Dec-08 01:08 340 -2.8
2019-Dec-08 01:03 358 0 gusting 3 -2.8
2019-Dec-08 00:58 010 1 gusting 5 -2.8
2019-Dec-08 00:53 343 1 gusting 8 -2.8
2019-Dec-08 00:48 360 3 gusting 10 -2.8
2019-Dec-08 00:43 330 6 gusting 10 -2.8
2019-Dec-08 00:38 343 3 gusting 9 -2.8
2019-Dec-08 00:33 014 3 gusting 9 -2.8
2019-Dec-08 00:28 349 3 gusting 5 -2.8
2019-Dec-08 00:23 341 1 gusting 5 -2.8
2019-Dec-08 00:18 310 1 gusting 5 -2.8
2019-Dec-08 00:13 351 1 gusting 4 -2.8
2019-Dec-08 00:08 318 1 gusting 7 -2.8
2019-Dec-08 00:03 291 4 gusting 8 -2.8
2019-Dec-07 23:58 345 3 gusting 8 -2.8
2019-Dec-07 23:53 332 3 gusting 6 -2.8
2019-Dec-07 23:48 356 2 gusting 9 -2.8
2019-Dec-07 23:43 326 5 gusting 8 -2.8
2019-Dec-07 23:38 317 2 gusting 5 -2.8
2019-Dec-07 23:33 306 2 gusting 5 -2.8
2019-Dec-07 23:28 061 2 gusting 7 -2.8
2019-Dec-07 23:23 353 2 gusting 8 -2.8
2019-Dec-07 23:18 005 2 gusting 8 -2.8
2019-Dec-07 23:13 340 3 gusting 7 -2.8
2019-Dec-07 23:08 347 2 gusting 8 -2.8
2019-Dec-07 23:03 037 2 gusting 6 -2.8
2019-Dec-07 22:58 074 0 gusting 2 -2.8
2019-Dec-07 22:53 015 -2.8
2019-Dec-07 22:48 014 -2.8
2019-Dec-07 22:43 013 -2.2
2019-Dec-07 22:38 013 -2.2
2019-Dec-07 22:33 351 1 gusting 4 -2.2
2019-Dec-07 22:28 085 0 gusting 6 -2.2
2019-Dec-07 22:23 360 1 gusting 6 -2.2
2019-Dec-07 22:18 351 1 gusting 5 -2.2
2019-Dec-07 22:13 012 1 gusting 4 -2.2
2019-Dec-07 22:08 045 0 gusting 5 -2.8
2019-Dec-07 22:03 355 1 gusting 5 -2.8
2019-Dec-07 21:58 316 2 gusting 6 -2.8
2019-Dec-07 21:53 038 0 gusting 3 -2.8
2019-Dec-07 21:48 115 -2.8
2019-Dec-07 21:43 121 0 gusting 2 -2.8
2019-Dec-07 21:38 122 0 gusting 2 -2.8
2019-Dec-07 21:33 123 0 gusting 3 -2.8
2019-Dec-07 21:28 123 1 gusting 3 -2.8
2019-Dec-07 21:23 123 2 gusting 3 -2.8
2019-Dec-07 21:18 074 0 gusting 2 -2.2
2019-Dec-07 21:13 074 1 gusting 2 -2.2
2019-Dec-07 21:08 074 1 gusting 2 -2.2
2019-Dec-07 21:03 056 0 gusting 2 -2.2
2019-Dec-07 20:58 047 -1.7
2019-Dec-07 20:53 044 -1.7
2019-Dec-07 20:48 360 1 gusting 5 -1.7
2019-Dec-07 20:43 312 1 gusting 8 -1.7
2019-Dec-07 20:38 358 3 gusting 10 -1.7
2019-Dec-07 20:33 328 3 gusting 10 -1.7
2019-Dec-07 20:28 360 2 gusting 7 -1.7
2019-Dec-07 20:23 033 3 gusting 7 -1.7
2019-Dec-07 20:18 351 4 gusting 7 -1.1
2019-Dec-07 20:13 002 3 gusting 7 -1.1
2019-Dec-07 20:08 318 4 gusting 7 -1.7
2019-Dec-07 20:03 336 2 gusting 7 -1.7
2019-Dec-07 19:58 031 1 gusting 7 -1.7
2019-Dec-07 19:53 022 2 gusting 5 -1.7
2019-Dec-07 19:48 005 1 gusting 5 -1.7
2019-Dec-07 19:43 339 2 gusting 6 -1.7
2019-Dec-07 19:38 012 1 gusting 6 -1.7
2019-Dec-07 19:33 032 0 gusting 6 -1.7
2019-Dec-07 19:28 334 1 gusting 6 -2.2
2019-Dec-07 19:23 012 1 gusting 5 -2.2
2019-Dec-07 19:18 358 2 gusting 5 -2.2
2019-Dec-07 19:13 028 1 gusting 3 -2.2
2019-Dec-07 19:08 033 0 gusting 3 -2.2
2019-Dec-07 19:03 035 0 gusting 3 -2.2
2019-Dec-07 18:58 008 1 gusting 4 -2.2
2019-Dec-07 18:53 024 2 gusting 5 -2.2
2019-Dec-07 18:48 356 1 gusting 8 -2.2
2019-Dec-07 18:43 358 3 gusting 8 -2.2
2019-Dec-07 18:38 006 2 gusting 6 -2.2
2019-Dec-07 18:33 008 3 gusting 6 -1.7
2019-Dec-07 18:28 337 2 gusting 7 -1.7
2019-Dec-07 18:23 004 3 gusting 7 -1.7
2019-Dec-07 18:18 002 2 gusting 4 -1.7
2019-Dec-07 18:13 354 2 gusting 4 -1.7
2019-Dec-07 18:08 346 1 gusting 3 -1.7
2019-Dec-07 18:03 355 1 gusting 4 -1.7
2019-Dec-07 17:58 009 1 gusting 4 -1.7
2019-Dec-07 17:53 331 1 gusting 4 -1.7
2019-Dec-07 17:48 349 2 gusting 4 -1.1
2019-Dec-07 17:43 002 0 gusting 3 -1.1
2019-Dec-07 17:38 352 1 gusting 4 -1.1
2019-Dec-07 17:33 348 0 gusting 3 -1.1
2019-Dec-07 17:28 014 1 gusting 3 -1.1
2019-Dec-07 17:23 022 0 gusting 3 -1.1
2019-Dec-07 17:18 355 1 gusting 4 -1.1
2019-Dec-07 17:13 351 1 gusting 4 -0.6
2019-Dec-07 17:08 343 0 gusting 2 -0.6
2019-Dec-07 17:03 006 0 gusting 2 -0.6
2019-Dec-07 16:58 355 0 gusting 3 -0.6
2019-Dec-07 16:53 355 0 gusting 3 -0.6
2019-Dec-07 16:48 339 1 gusting 3 -0.6
2019-Dec-07 16:43 338 1 gusting 3 -0.6
2019-Dec-07 16:38 338 1 gusting 3 -0.6
2019-Dec-07 16:33 041 0 gusting 3 -0.6
2019-Dec-07 16:28 019 1 gusting 3 -0.6
2019-Dec-07 16:23 037 0 gusting 5 -0.6
2019-Dec-07 16:18 015 2 gusting 6 -0.6
2019-Dec-07 16:13 191 0 gusting 6 -0.6
2019-Dec-07 16:08 316 -0.6
2019-Dec-07 16:03 316 -0.6
2019-Dec-07 15:58 316 3 gusting 9 -0.6
2019-Dec-07 15:53 329 3 gusting 9 -0.6
2019-Dec-07 15:48 344 0 gusting 6 -0.6
2019-Dec-07 15:43 328 2 gusting 3 -0.6
2019-Dec-07 15:38 302 2 gusting 3 -0.6
2019-Dec-07 15:33 003 0 gusting 7 -0.6
2019-Dec-07 15:28 058 1 gusting 10 -0.6
2019-Dec-07 15:23 061 4 gusting 8 -0.6
2019-Dec-07 15:18 045 1 gusting 10 -0.6
2019-Dec-07 15:13 035 2 gusting 7 -0.6
2019-Dec-07 15:08 035 2 gusting 6 -0.6
2019-Dec-07 15:03 026 0 gusting 6 -0.6
2019-Dec-07 14:58 046 -0.6
2019-Dec-07 14:53 060 2 gusting 3 -0.6
2019-Dec-07 14:48 070 1 gusting 3 -0.6
2019-Dec-07 14:43 081 2 gusting 3 -0.6
2019-Dec-07 14:38 066 -0.6
2019-Dec-07 14:33 066 1 gusting 5 -1.1
2019-Dec-07 14:28 006 1 gusting 6 -1.1
2019-Dec-07 14:23 033 2 gusting 6 -1.1
2019-Dec-07 14:18 053 2 gusting 6 -1.1
2019-Dec-07 14:13 056 1 gusting 4 -1.1
2019-Dec-07 14:08 013 1 gusting 5 -1.1
2019-Dec-07 14:03 345 0 gusting 6 -1.1
2019-Dec-07 13:58 335 1 gusting 7 -1.1
2019-Dec-07 13:53 351 2 gusting 7 -1.1
2019-Dec-07 13:48 334 3 gusting 6 -1.1
2019-Dec-07 13:43 330 2 gusting 5 -1.1
2019-Dec-07 13:38 049 0 gusting 6 -1.1
2019-Dec-07 13:33 013 2 gusting 6 -1.1
2019-Dec-07 13:28 044 0 gusting 2 -1.1
2019-Dec-07 13:23 056 -1.1
2019-Dec-07 13:18 033 -1.1
2019-Dec-07 13:13 031 -1.1
2019-Dec-07 13:08 350 -1.1
2019-Dec-07 13:03 350 -1.1
2019-Dec-07 12:58 349 0 gusting 5 -1.1
2019-Dec-07 12:53 307 1 gusting 5 -1.1
2019-Dec-07 12:48 349 0 gusting 2 -1.1
2019-Dec-07 12:43 335 1 gusting 6 -1.1
2019-Dec-07 12:38 337 2 gusting 6 -1.1
2019-Dec-07 12:33 291 0 gusting 6 -1.1
2019-Dec-07 12:28 316 1 gusting 6 -1.1
2019-Dec-07 12:23 281 2 gusting 5 -1.1
2019-Dec-07 12:18 295 2 gusting 5 -1.1
2019-Dec-07 12:13 105 0 gusting 6 -1.1
2019-Dec-07 12:08 295 3 gusting 6 -1.1
2019-Dec-07 12:03 328 2 gusting 5 -1.1
2019-Dec-07 11:58 312 0 gusting 6 -1.1
2019-Dec-07 11:53 211 3 gusting 11 -1.1
2019-Dec-07 11:48 341 4 gusting 11 -1.1
2019-Dec-07 11:43 023 3 gusting 10 -1.1
2019-Dec-07 11:38 334 0 gusting 10 -1.1
2019-Dec-07 11:33 281 2 gusting 4 -1.1
2019-Dec-07 11:28 318 1 gusting 6 -1.1
2019-Dec-07 11:23 301 0 gusting 6 -1.1
2019-Dec-07 11:18 304 2 gusting 6 -1.1
2019-Dec-07 11:13 291 3 gusting 6 -1.1
2019-Dec-07 11:08 303 3 gusting 5 -1.1
2019-Dec-07 11:03 328 -1.1
2019-Dec-07 10:58 331 2 gusting 7 -1.1
2019-Dec-07 10:53 321 1 gusting 4 -1.1
2019-Dec-07 10:48 332 2 gusting 6 -1.1
2019-Dec-07 10:43 307 3 gusting 6 -1.1
2019-Dec-07 10:38 323 1 gusting 4 -1.1
2019-Dec-07 10:33 343 0 gusting 2 -1.1
2019-Dec-07 10:28 099 -1.1
2019-Dec-07 10:23 097 0 gusting 3 -1.1
2019-Dec-07 10:18 028 -1.7
2019-Dec-07 10:13 197 -1.7
2019-Dec-07 10:08 269 1 gusting 3 -1.7
2019-Dec-07 10:03 097 0 gusting 3 -1.7
2019-Dec-07 09:58 155 1 gusting 3 -1.7
2019-Dec-07 09:53 198 0 gusting 1 -1.7
2019-Dec-07 09:48 259 -1.7
2019-Dec-07 09:43 260 0 gusting 4 -1.7
2019-Dec-07 09:38 353 0 gusting 3 -1.7
2019-Dec-07 09:33 012 1 gusting 3 -1.7
2019-Dec-07 09:28 351 0 gusting 1 -1.7
2019-Dec-07 09:23 318 -1.7
2019-Dec-07 09:18 318 0 gusting 1 -1.7
2019-Dec-07 09:13 308 -1.7
2019-Dec-07 09:08 308 -1.7
2019-Dec-07 09:03 308 0 gusting 3 -1.7
2019-Dec-07 08:58 172 -1.7
2019-Dec-07 08:53 330 0 gusting 2 -1.7
2019-Dec-07 08:48 119 -1.7
2019-Dec-07 08:43 119 -1.7
2019-Dec-07 08:38 119 -1.7
2019-Dec-07 08:33 360 -1.7
2019-Dec-07 08:28 319 2 gusting 4 -1.7
2019-Dec-07 08:23 342 0 gusting 2 -1.7
2019-Dec-07 08:18 319 -1.7
2019-Dec-07 08:13 319 -1.7
2019-Dec-07 08:08 330 -1.7
2019-Dec-07 08:03 281 0 gusting 2 -1.7
2019-Dec-07 07:58 299 0 gusting 1 -1.7
2019-Dec-07 07:53 302 0 gusting 2 -1.7
2019-Dec-07 07:48 325 -1.7
2019-Dec-07 07:43 314 0 gusting 2 -1.7
2019-Dec-07 07:38 228 0 gusting 2 -1.7
2019-Dec-07 07:33 276 1 gusting 2 -1.7
2019-Dec-07 07:28 100 -1.7
2019-Dec-07 07:23 070 -1.7
2019-Dec-07 07:18 046 -1.7
2019-Dec-07 07:13 046 -1.7
2019-Dec-07 07:08 046 -1.7
2019-Dec-07 07:03 045 -1.7
2019-Dec-07 06:58 045 -1.7
2019-Dec-07 06:53 312 -1.7
2019-Dec-07 06:48 312 -1.7
2019-Dec-07 06:43 312 0 gusting 3 -1.7
2019-Dec-07 06:38 012 0 gusting 2 -1.7
2019-Dec-07 06:33 357 -1.7
2019-Dec-07 06:28 354 0 gusting 1 -1.1
2019-Dec-07 06:23 151 -1.1
2019-Dec-07 06:18 151 -1.1
2019-Dec-07 06:13 151 0 gusting 2 -1.1
2019-Dec-07 06:08 202 0 gusting 2 -1.7
2019-Dec-07 06:03 146 -1.1
2019-Dec-07 05:58 146 -1.1
2019-Dec-07 05:53 146 -1.1
2019-Dec-07 05:48 146 -1.1
2019-Dec-07 05:43 146 -1.1
2019-Dec-07 05:38 146 0 gusting 2 -1.1
2019-Dec-07 05:33 146 1 gusting 2 -1.1
2019-Dec-07 05:28 146 0 gusting 2 -1.1
2019-Dec-07 05:23 146 -1.1
2019-Dec-07 05:18 129 -1.1
2019-Dec-07 05:13 129 0 gusting 2 -1.1
2019-Dec-07 05:08 084 -1.1
2019-Dec-07 05:03 155 -1.1
2019-Dec-07 04:58 155 0 gusting 2 -1.1
2019-Dec-07 04:53 150 0 gusting 2 -1.1
2019-Dec-07 04:48 233 -1.1
2019-Dec-07 04:43 233 -1.1
2019-Dec-07 04:38 318 -1.7
2019-Dec-07 04:33 345 0 gusting 2 -1.7
2019-Dec-07 04:28 291 -1.7
2019-Dec-07 04:23 291 -1.7
2019-Dec-07 04:18 291 -1.7
2019-Dec-07 04:13 144 0 gusting 1 -1.7
2019-Dec-07 04:08 138 0 gusting 1 -1.7
2019-Dec-07 04:03 137 -1.7
2019-Dec-07 03:58 137 0 gusting 2 -1.7
2019-Dec-07 03:53 136 0 gusting 2 -1.7
2019-Dec-07 03:48 136 -1.7
2019-Dec-07 03:43 136 0 gusting 2 -1.7
2019-Dec-07 03:38 136 -1.7
2019-Dec-07 03:33 136 -1.7
2019-Dec-07 03:28 136 -1.7
2019-Dec-07 03:23 136 -1.7
2019-Dec-07 03:18 136 -1.7
2019-Dec-07 03:13 136 0 gusting 1 -1.1
2019-Dec-07 03:08 136 -1.1
2019-Dec-07 03:03 136 0 gusting 1 -1.1
2019-Dec-07 02:58 136 -1.1
2019-Dec-07 02:53 136 -1.1
2019-Dec-07 02:48 136 -1.1
2019-Dec-07 02:43 137 -1.1
2019-Dec-07 02:38 137 -1.1
2019-Dec-07 02:33 137 -1.1
2019-Dec-07 02:28 137 -1.1
2019-Dec-07 02:23 137 -1.1
2019-Dec-07 02:18 137 -1.1
2019-Dec-07 02:13 137 -1.1
2019-Dec-07 02:08 137 0 gusting 2 -1.1
2019-Dec-07 02:03 132 0 gusting 2 -1.1
2019-Dec-07 01:58 132 -1.1
2019-Dec-07 01:53 132 -1.1
2019-Dec-07 01:48 132 -1.1
2019-Dec-07 01:43 132 -1.1
2019-Dec-07 01:38 132 -1.1
2019-Dec-07 01:33 132 -1.1
2019-Dec-07 01:28 132 -1.1
2019-Dec-07 01:23 132 0 gusting 2 -1.1
2019-Dec-07 01:18 128 -1.1
2019-Dec-07 01:13 128 -1.1
2019-Dec-07 01:08 128 -1.1
2019-Dec-07 01:03 128 0 gusting 1 -1.1
2019-Dec-07 00:58 128 -1.1
2019-Dec-07 00:53 128 -1.1
2019-Dec-07 00:48 128 -1.1
2019-Dec-07 00:43 128 -1.1
2019-Dec-07 00:38 128 0 gusting 2 -1.1
2019-Dec-07 00:33 116 -1.1
2019-Dec-07 00:28 120 0 gusting 2 -1.1
2019-Dec-07 00:23 091 -1.1
2019-Dec-07 00:18 330 1 gusting 3 -1.1
2019-Dec-07 00:13 291 0 gusting 3 -1.1
2019-Dec-07 00:08 325 -1.1
2019-Dec-07 00:03 326 -1.1